Time,TemperatureF,DewpointF,PressureIn,WindDirection,WindDirectionDegrees,WindSpeedMPH,WindSpeedGustMPH,Humidity,HourlyPrecipIn,Conditions,Clouds,dailyrainin,SoftwareType,DateUTC
2013-04-01 00:03:00,33.8,21.4,29.97,West,278,2.0,5.0,60,0.00,CLR,,0.00,WeatherDisplay:10.37,2013-04-01 05:03:00,
2013-04-01 00:18:00,33.8,21.4,29.94,WNW,293,2.0,6.0,60,0.00,CLR,,0.00,WeatherDisplay:10.37,2013-04-01 05:18:00,
2013-04-01 00:33:00,33.3,21.3,29.97,NNW,327,2.0,5.0,61,0.00,CLR,,0.00,WeatherDisplay:10.37,2013-04-01 05:33:00,
2013-04-01 00:48:00,32.9,20.9,29.97,NW,307,0.0,6.0,61,0.00,CLR,,0.00,WeatherDisplay:10.37,2013-04-01 05:48:00,
2013-04-01 01:03:00,32.4,20.4,29.97,NW,305,0.0,4.0,61,0.00,CLR,,0.00,WeatherDisplay:10.37,2013-04-01 06:03:00,
2013-04-01 01:18:00,32.4,20.8,30.00,NW,319,1.0,4.0,62,0.00,CLR,,0.00,WeatherDisplay:10.37,2013-04-01 06:18:00,
2013-04-01 01:33:00,32.2,20.6,30.00,WNW,295,2.0,5.0,62,0.00,CLR,,0.00,WeatherDisplay:10.37,2013-04-01 06:33:00,
2013-04-01 01:48:00,31.8,20.6,30.03,NW,315,3.0,6.0,63,0.00,CLR,,0.00,WeatherDisplay:10.37,2013-04-01 06:48:00,
2013-04-01 02:03:00,31.5,20.3,30.03,WNW,298,2.0,5.0,63,0.00,CLR,,0.00,WeatherDisplay:10.37,2013-04-01 07:03:00,
2013-04-01 02:18:00,31.2,20.1,30.03,NW,312,1.0,5.0,63,0.00,CLR,,0.00,WeatherDisplay:10.37,2013-04-01 07:18:00,
2013-04-01 02:33:00,30.7,20.0,30.03,WNW,298,1.0,3.0,64,0.00,CLR,,0.00,WeatherDisplay:10.37,2013-04-01 07:33:00,
2013-04-01 02:48:00,30.7,19.6,30.03,NW,316,0.0,6.0,63,0.00,CLR,,0.00,WeatherDisplay:10.37,2013-04-01 07:48:00,
2013-04-01 03:03:00,30.4,19.3,30.03,NNW,335,1.0,6.0,63,0.00,CLR,,0.00,WeatherDisplay:10.37,2013-04-01 08:03:00,
2013-04-01 03:18:00,30.2,19.8,30.00,NW,319,1.0,4.0,65,0.00,CLR,,0.00,WeatherDisplay:10.37,2013-04-01 08:18:00,
2013-04-01 03:33:00,30.0,19.7,30.00,NW,315,1.0,3.0,65,0.00,CLR,,0.00,WeatherDisplay:10.37,2013-04-01 08:33:00,
2013-04-01 03:48:00,29.7,19.3,30.03,NW,318,0.0,0.0,65,0.00,CLR,,0.00,WeatherDisplay:10.37,2013-04-01 08:48:00,
2013-04-01 04:03:00,29.5,19.5,30.03,WNW,295,2.0,4.0,66,0.00,CLR,,0.00,WeatherDisplay:10.37,2013-04-01 09:03:00,
2013-04-01 04:18:00,28.9,19.3,30.03,NNW,328,0.0,3.0,67,0.00,CLR,,0.00,WeatherDisplay:10.37,2013-04-01 09:18:00,
2013-04-01 04:33:00,28.6,19.4,30.06,NW,312,0.0,3.0,68,0.00,CLR,,0.00,WeatherDisplay:10.37,2013-04-01 09:33:00,
2013-04-01 04:48:00,28.4,19.5,30.06,NW,319,0.0,2.0,69,0.00,CLR,,0.00,WeatherDisplay:10.37,2013-04-01 09:48:00,
2013-04-01 05:03:00,28.0,19.5,30.06,WNW,283,0.0,2.0,70,0.00,CLR,,0.00,WeatherDisplay:10.37,2013-04-01 10:03:00,
2013-04-01 05:18:00,27.9,19.7,30.06,ENE,59,0.0,2.0,71,0.00,CLR,,0.00,WeatherDisplay:10.37,2013-04-01 10:18:00,
2013-04-01 05:33:00,27.8,19.3,30.06,NW,315,0.0,3.0,70,0.00,CLR,,0.00,WeatherDisplay:10.37,2013-04-01 10:33:00,
2013-04-01 05:48:00,27.1,18.3,30.09,East,90,0.0,0.0,69,0.00,CLR,,0.00,WeatherDisplay:10.37,2013-04-01 10:48:00,
2013-04-01 06:03:00,26.6,18.1,30.09,SSW,209,0.0,2.0,70,0.00,CLR,,0.00,WeatherDisplay:10.37,2013-04-01 11:03:00,
2013-04-01 06:18:00,26.2,17.8,30.09,West,277,0.0,1.0,70,0.00,CLR,,0.00,WeatherDisplay:10.37,2013-04-01 11:18:00,
2013-04-01 06:33:00,25.9,17.8,30.09,WNW,288,0.0,1.0,71,0.00,CLR,,0.00,WeatherDisplay:10.37,2013-04-01 11:33:00,
2013-04-01 06:48:00,25.9,18.4,30.09,NW,315,0.0,2.0,73,0.00,CLR,,0.00,WeatherDisplay:10.37,2013-04-01 11:48:00,
2013-04-01 07:03:00,27.0,19.8,30.09,NW,319,0.0,3.0,74,0.00,CLR,,0.00,WeatherDisplay:10.37,2013-04-01 12:03:00,
2013-04-01 07:18:00,28.4,20.5,30.12,NW,306,1.0,5.0,72,0.00,CLR,,0.00,WeatherDisplay:10.37,2013-04-01 12:18:00,
2013-04-01 07:33:00,29.7,20.4,30.15,WNW,298,0.0,5.0,68,0.00,CLR,,0.00,WeatherDisplay:10.37,2013-04-01 12:33:00,
2013-04-01 07:48:00,30.6,19.5,30.15,WNW,296,3.0,7.0,63,0.00,CLR,,0.00,WeatherDisplay:10.37,2013-04-01 12:48:00,
2013-04-01 08:03:00,31.6,19.7,30.15,NNW,327,0.0,6.0,61,0.00,CLR,,0.00,WeatherDisplay:10.37,2013-04-01 13:03:00,
2013-04-01 08:18:00,32.7,19.1,30.12,NNW,329,3.0,6.0,57,0.00,CLR,,0.00,WeatherDisplay:10.37,2013-04-01 13:18:00,
2013-04-01 08:33:00,33.4,18.5,30.12,NW,324,2.0,7.0,54,0.00,CLR,,0.00,WeatherDisplay:10.37,2013-04-01 13:33:00,
2013-04-01 08:48:00,34.3,19.0,30.15,NW,321,2.0,11.0,53,0.00,CLR,,0.00,WeatherDisplay:10.37,2013-04-01 13:48:00,
2013-04-01 09:03:00,34.7,17.5,30.15,NNW,343,6.0,11.0,49,0.00,CLR,,0.00,WeatherDisplay:10.37,2013-04-01 14:03:00,
2013-04-01 09:18:00,33.3,16.1,30.15,NW,304,2.0,9.0,49,0.00,CLR,,0.00,WeatherDisplay:10.37,2013-04-01 14:18:00,
2013-04-01 09:33:00,34.9,16.7,30.18,NNW,335,6.0,14.0,47,0.00,CLR,,0.00,WeatherDisplay:10.37,2013-04-01 14:33:00,
2013-04-01 09:48:00,34.5,15.8,30.18,NNW,344,5.0,8.0,46,0.00,CLR,,0.00,WeatherDisplay:10.37,2013-04-01 14:48:00,
2013-04-01 10:03:00,36.5,16.1,30.18,NNW,341,5.0,10.0,43,0.00,CLR,,0.00,WeatherDisplay:10.37,2013-04-01 15:03:00,
2013-04-01 10:18:00,36.7,16.3,30.18,WNW,296,3.0,9.0,43,0.00,CLR,,0.00,WeatherDisplay:10.37,2013-04-01 15:18:00,
2013-04-01 10:33:00,37.0,16.0,30.18,NW,318,2.0,10.0,42,0.00,CLR,,0.00,WeatherDisplay:10.37,2013-04-01 15:33:00,
2013-04-01 10:48:00,37.5,15.9,30.18,WNW,302,6.0,12.0,41,0.00,CLR,,0.00,WeatherDisplay:10.37,2013-04-01 15:48:00,
2013-04-01 11:03:00,38.4,16.1,30.18,NW,308,6.0,9.0,40,0.00,CLR,,0.00,WeatherDisplay:10.37,2013-04-01 16:03:00,
2013-04-01 11:18:00,38.3,16.1,30.18,WNW,300,5.0,13.0,40,0.00,CLR,,0.00,WeatherDisplay:10.37,2013-04-01 16:18:00,
2013-04-01 11:33:00,37.7,15.5,30.18,WNW,295,5.0,12.0,40,0.00,CLR,,0.00,WeatherDisplay:10.37,2013-04-01 16:33:00,
2013-04-01 11:48:00,38.3,16.1,30.18,NW,315,5.0,10.0,40,0.00,CLR,,0.00,WeatherDisplay:10.37,2013-04-01 16:48:00,
2013-04-01 12:03:00,39.2,16.9,30.21,WNW,292,3.0,15.0,40,0.00,CLR,,0.00,WeatherDisplay:10.37,2013-04-01 17:03:00,
2013-04-01 12:18:00,40.9,17.8,30.21,WNW,284,3.0,14.0,39,0.00,CLR,,0.00,WeatherDisplay:10.37,2013-04-01 17:18:00,
2013-04-01 12:33:00,39.6,16.7,30.21,NW,306,3.0,9.0,39,0.00,CLR,,0.00,WeatherDisplay:10.37,2013-04-01 17:33:00,
2013-04-01 12:48:00,39.3,16.3,30.18,WNW,293,10.0,13.0,39,0.00,CLR,,0.00,WeatherDisplay:10.37,2013-04-01 17:48:00,
2013-04-01 13:03:00,40.6,17.5,30.21,WNW,283,5.0,15.0,39,0.00,CLR,,0.00,WeatherDisplay:10.37,2013-04-01 18:03:00,
2013-04-01 13:18:00,41.2,17.5,30.18,West,277,6.0,11.0,38,0.00,CLR,,0.00,WeatherDisplay:10.37,2013-04-01 18:18:00,
2013-04-01 13:33:00,42.0,17.6,30.18,WNW,295,6.0,10.0,37,0.00,CLR,,0.00,WeatherDisplay:10.37,2013-04-01 18:33:00,
2013-04-01 13:48:00,41.7,16.7,30.18,WNW,290,6.0,14.0,36,0.00,CLR,,0.00,WeatherDisplay:10.37,2013-04-01 18:48:00,
2013-04-01 14:03:00,43.1,17.3,30.18,WNW,303,6.0,17.0,35,0.00,CLR,,0.00,WeatherDisplay:10.37,2013-04-01 19:03:00,
2013-04-01 14:18:00,42.9,18.4,30.18,NW,319,3.0,12.0,37,0.00,CLR,,0.00,WeatherDisplay:10.37,2013-04-01 19:18:00,
2013-04-01 14:33:00,44.0,19.4,30.18,NW,305,5.0,12.0,37,0.00,CLR,,0.00,WeatherDisplay:10.37,2013-04-01 19:33:00,
2013-04-01 14:48:00,43.5,17.6,30.18,NW,315,7.0,17.0,35,0.00,CLR,,0.00,WeatherDisplay:10.37,2013-04-01 19:48:00,
2013-04-01 15:03:00,42.6,16.8,30.18,WNW,302,6.0,13.0,35,0.00,CLR,,0.00,WeatherDisplay:10.37,2013-04-01 20:03:00,
2013-04-01 15:18:00,42.2,15.8,30.18,NW,306,7.0,16.0,34,0.00,CLR,,0.00,WeatherDisplay:10.37,2013-04-01 20:18:00,
2013-04-01 15:33:00,43.2,17.3,30.18,NW,310,5.0,13.0,35,0.00,CLR,,0.00,WeatherDisplay:10.37,2013-04-01 20:33:00,
2013-04-01 15:48:00,43.4,16.9,30.18,NW,311,5.0,11.0,34,0.00,CLR,,0.00,WeatherDisplay:10.37,2013-04-01 20:48:00,
2013-04-01 16:03:00,44.5,17.2,30.15,WNW,289,3.0,15.0,33,0.00,CLR,,0.00,WeatherDisplay:10.37,2013-04-01 21:03:00,
2013-04-01 16:18:00,44.0,16.7,30.15,WNW,292,2.0,15.0,33,0.00,CLR,,0.00,WeatherDisplay:10.37,2013-04-01 21:18:00,
2013-04-01 16:33:00,45.4,18.6,30.15,WNW,297,3.0,13.0,34,0.00,CLR,,0.00,WeatherDisplay:10.37,2013-04-01 21:33:00,
2013-04-01 16:48:00,44.4,15.6,30.15,WNW,294,5.0,13.0,31,0.00,CLR,,0.00,WeatherDisplay:10.37,2013-04-01 21:48:00,
2013-04-01 17:03:00,45.8,18.3,30.18,NW,305,6.0,14.0,33,0.00,CLR,,0.00,WeatherDisplay:10.37,2013-04-01 22:03:00,
2013-04-01 17:18:00,44.8,15.9,30.18,WNW,296,3.0,17.0,31,0.00,CLR,,0.00,WeatherDisplay:10.37,2013-04-01 22:18:00,
2013-04-01 17:33:00,43.5,14.8,30.18,WNW,293,9.0,11.0,31,0.00,CLR,,0.00,WeatherDisplay:10.37,2013-04-01 22:33:00,
2013-04-01 17:48:00,44.8,17.4,30.18,NW,320,2.0,13.0,33,0.00,CLR,,0.00,WeatherDisplay:10.37,2013-04-01 22:48:00,
2013-04-01 18:03:00,41.5,13.8,30.18,WNW,293,3.0,12.0,32,0.00,CLR,,0.00,WeatherDisplay:10.37,2013-04-01 23:03:00,
2013-04-01 18:18:00,38.5,13.8,30.18,WNW,282,8.0,10.0,36,0.00,CLR,,0.00,WeatherDisplay:10.37,2013-04-01 23:18:00,
2013-04-01 18:33:00,37.2,13.9,30.18,WNW,299,6.0,13.0,38,0.00,CLR,,0.00,WeatherDisplay:10.37,2013-04-01 23:33:00,
2013-04-01 18:48:00,36.3,14.3,30.18,WNW,290,6.0,13.0,40,0.00,CLR,,0.00,WeatherDisplay:10.37,2013-04-01 23:48:00,
2013-04-01 19:03:00,35.6,13.6,30.18,WNW,290,3.0,10.0,40,0.00,CLR,,0.00,WeatherDisplay:10.37,2013-04-02 00:03:00,
2013-04-01 19:18:00,35.1,13.1,30.18,WNW,299,2.0,8.0,40,0.00,CLR,,0.00,WeatherDisplay:10.37,2013-04-02 00:18:00,
2013-04-01 19:33:00,34.1,12.8,30.18,WNW,289,6.0,9.0,41,0.00,CLR,,0.00,WeatherDisplay:10.37,2013-04-02 00:33:00,
2013-04-01 19:48:00,33.6,12.9,30.18,West,281,6.0,9.0,42,0.00,CLR,,0.00,WeatherDisplay:10.37,2013-04-02 00:48:00,
2013-04-01 20:03:00,32.9,13.3,30.18,West,280,5.0,8.0,44,0.00,CLR,,0.00,WeatherDisplay:10.37,2013-04-02 01:03:00,
2013-04-01 20:18:00,32.5,13.5,30.18,WNW,283,3.0,8.0,45,0.00,CLR,,0.00,WeatherDisplay:10.37,2013-04-02 01:18:00,
2013-04-01 20:33:00,32.4,13.4,30.21,WNW,288,3.0,7.0,45,0.00,CLR,,0.00,WeatherDisplay:10.37,2013-04-02 01:33:00,
2013-04-01 20:48:00,31.8,13.8,30.21,WNW,293,3.0,7.0,47,0.00,CLR,,0.00,WeatherDisplay:10.37,2013-04-02 01:48:00,
2013-04-01 21:03:00,31.5,13.5,30.21,WNW,300,2.0,6.0,47,0.00,CLR,,0.00,WeatherDisplay:10.37,2013-04-02 02:03:00,
2013-04-01 21:18:00,31.1,14.1,30.18,WNW,290,1.0,6.0,49,0.00,CLR,,0.00,WeatherDisplay:10.37,2013-04-02 02:18:00,
2013-04-01 21:33:00,30.2,13.8,30.18,WNW,294,1.0,4.0,50,0.00,CLR,,0.00,WeatherDisplay:10.37,2013-04-02 02:33:00,
2013-04-01 21:48:00,29.8,13.9,30.21,WNW,284,2.0,5.0,51,0.00,CLR,,0.00,WeatherDisplay:10.37,2013-04-02 02:48:00,
2013-04-01 22:03:00,29.7,14.2,30.18,WNW,296,3.0,5.0,52,0.00,CLR,,0.00,WeatherDisplay:10.37,2013-04-02 03:03:00,
2013-04-01 22:18:00,29.3,13.8,30.21,WNW,282,3.0,6.0,52,0.00,CLR,,0.00,WeatherDisplay:10.37,2013-04-02 03:18:00,
2013-04-01 22:33:00,28.8,13.3,30.21,WNW,302,0.0,6.0,52,0.00,CLR,,0.00,WeatherDisplay:10.37,2013-04-02 03:33:00,
2013-04-01 22:48:00,28.6,14.0,30.21,NW,305,1.0,3.0,54,0.00,CLR,,0.00,WeatherDisplay:10.37,2013-04-02 03:48:00,
2013-04-01 23:03:00,28.9,14.4,30.21,NW,325,1.0,3.0,54,0.00,CLR,,0.00,WeatherDisplay:10.37,2013-04-02 04:03:00,
2013-04-01 23:18:00,28.6,14.0,30.21,WNW,301,0.0,3.0,54,0.00,CLR,,0.00,WeatherDisplay:10.37,2013-04-02 04:18:00,
2013-04-01 23:33:00,28.6,14.0,30.21,WNW,288,0.0,3.0,54,0.00,CLR,,0.00,WeatherDisplay:10.37,2013-04-02 04:33:00,
2013-04-01 23:48:00,28.2,13.7,30.21,NW,316,1.0,4.0,54,0.00,CLR,,0.00,WeatherDisplay:10.37,2013-04-02 04:48:00,